Weather History for KBMG - January, 2014

Change the Weather History Date:

Wednesday, January 1, 2014

  Actual Average Record
Temperature  
Mean Temperature 37 °F 29 °F  
Max Temperature 45 °F 38 °F - ()
Min Temperature 29 °F 21 °F - ()
Degree Days  
Heating Degree Days 28 36  
Month to date heating degree days 28 36  
Since 1 July heating degree days 2179 2109  
Cooling Degree Days 0 0  
Month to date cooling degree days 0 0  
Year to date cooling degree days 0 0  
Moisture  
Dew Point 25 °F    
Average Humidity 66    
Maximum Humidity 82    
Minimum Humidity 49    
Precipitation  
Precipitation 0.00 in 0.14 in - ()
Month to date precipitation 0.00 0.14  
Year to date precipitation 0.00 0.14  
Sea Level Pressure  
Sea Level Pressure 30.15 in    
Wind  
Wind Speed 6 mph (SW)    
Max Wind Speed 18 mph    
Max Gust Speed 23 mph    
Visibility 10 miles    
Events      
T = Trace of Precipitation, MM = Missing Value Source: NWS Daily Summary

Daily Weather History Graph

Daily Weather History Graph

Search for Another Location

Airport or City:

Trip Planner

Search our weather history database for the weather conditions in past years. The results will help you decide how hot, cold, wet, or windy it might be!

Date:

Astronomy

Jan. 01, 2014 Rise Set
Actual Time 8:05 AM EST 5:34 PM EST
Civil Twilight 7:35 AM EST 6:04 PM EST
Nautical Twilight 7:02 AM EST 6:38 PM EST
Astronomical Twilight 6:29 AM EST 7:10 PM EST
Moon 7:56 AM EST (1/1) 6:18 PM EST (1/1)
Length of Visible Light 10h 28m
Length of Day
9h 28m
New Moon, 0% of the Moon is Illuminated
Jan 1
New Moon
Jan 7
First Quarter
Jan 15
Full
Jan 24
Last Quarter
Jan 30
New

Hourly Weather History & Observations

Time (EST) Temp. Windchill Dew Point Humidity Pressure Visibility Wind Dir Wind Speed Gust Speed Precip Events Conditions
12:53 AM 32.0 °F 26.4 °F 21.0 °F 64% 30.26 in 10.0 mi SW 5.8 mph - N/A   Clear
1:53 AM 30.9 °F 24.3 °F 21.0 °F 67% 30.25 in 10.0 mi SSW 6.9 mph - N/A   Clear
2:53 AM 30.9 °F 24.3 °F 21.9 °F 69% 30.25 in 10.0 mi SSW 6.9 mph - N/A   Clear
3:53 AM 30.9 °F 24.3 °F 21.9 °F 69% 30.23 in 10.0 mi SSW 6.9 mph - N/A   Clear
4:53 AM 30.0 °F 24.1 °F 21.9 °F 72% 30.22 in 10.0 mi SSW 5.8 mph - N/A   Clear
5:53 AM 28.9 °F 22.8 °F 21.9 °F 75% 30.22 in 10.0 mi SSW 5.8 mph - N/A   Clear
6:53 AM 30.9 °F 23.5 °F 23.0 °F 72% 30.22 in 10.0 mi SSW 8.1 mph - N/A   Clear
7:53 AM 28.9 °F 21.1 °F 23.0 °F 78% 30.21 in 10.0 mi South 8.1 mph - N/A   Clear
8:53 AM 32.0 °F 25.6 °F 24.1 °F 73% 30.21 in 10.0 mi SSW 6.9 mph - N/A   Clear
9:53 AM 35.1 °F 27.9 °F 26.1 °F 70% 30.22 in 10.0 mi SSW 9.2 mph - N/A   Clear
10:53 AM 39.0 °F 31.4 °F 27.0 °F 62% 30.20 in 10.0 mi SW 12.7 mph 19.6 mph N/A   Clear
11:53 AM 43.0 °F 35.1 °F 27.0 °F 53% 30.17 in 10.0 mi SW 17.3 mph 23.0 mph N/A   Clear
12:53 PM 44.1 °F 38.6 °F 26.1 °F 49% 30.15 in 10.0 mi WSW 10.4 mph - N/A   Clear
1:53 PM 44.1 °F 38.6 °F 26.1 °F 49% 30.12 in 10.0 mi SW 10.4 mph - N/A   Clear
2:53 PM 43.0 °F 37.2 °F 26.1 °F 51% 30.10 in 10.0 mi WSW 10.4 mph - N/A   Clear
3:53 PM 42.1 °F 36.1 °F 25.0 °F 51% 30.10 in 10.0 mi WSW 10.4 mph - N/A   Clear
4:53 PM 41.0 °F 39.0 °F 26.1 °F 55% 30.10 in 10.0 mi West 3.5 mph - N/A   Clear
5:53 PM 37.9 °F - 26.1 °F 62% 30.08 in 10.0 mi Calm Calm - N/A   Clear
6:53 PM 37.9 °F - 27.0 °F 65% 30.08 in 10.0 mi Calm Calm - N/A   Partly Cloudy
7:53 PM 34.0 °F - 27.0 °F 75% 30.09 in 10.0 mi Calm Calm - N/A   Overcast
8:53 PM 35.1 °F - 27.0 °F 72% 30.07 in 10.0 mi Calm Calm - N/A   Overcast
9:53 PM 34.0 °F - 28.0 °F 79% 30.04 in 10.0 mi Calm Calm - N/A   Overcast
10:53 PM 34.0 °F - 28.0 °F 79% 30.01 in 10.0 mi Calm Calm - N/A   Overcast
11:53 PM 34.0 °F - 28.0 °F 79% 30.01 in 10.0 mi Calm Calm - N/A   Overcast